Location: Croissy-Beaubourg
(48.8283°N, 2.6696°E)
Time: 00:59:17
(UTC+00:00)

USA 215 - Pass Details

Date: 31 May 2022
Orbit: 1099 x 1108 km, 123.0° (Epoch: 10 June)

Event Time Altitude Azimuth Distance (km) Brightness Sun altitude
Rises 23:27:35 0° 55° (NE) 3,926 6.6 -19.0°
Reaches altitude 10° 23:30:08 10° 60° (ENE) 2,967 5.8 -19.0°
Maximum altitude 23:36:34 56° 138° (SE) 1,294 3.3 -19.1°
Enters shadow 23:40:14 26° 205° (SSW) 2,002 4.1 -19.1°
